カタログに戻る

HAWK-C

運用中科学SSO
NORAD 43799·PAYLOAD·🇺🇸 United States

打ち上げ Dec 3, 2018 から Vandenberg Space Force Base

Loading…

次のパス (今後24時間)

TLE

最新Source: Space-Track

元期: Sep 14, 2026, 14:32 UTC

1 43799U 18099AT  26257.60602723  .00006125  00000-0  21331-3 0  9994
2 43799  97.3792 310.0589 0038300 330.6146  29.2941 15.29336755427572

AllMySatでHAWK-Cをリアルタイム追跡

Download on the App Store